Powrót do katalogu

CZ-4 DEB

AktywnySSO
NORAD 29509·DEBRIS·🇨🇳 China

Wystrzelony Oct 23, 2006 z Taiyuan Satellite Launch Center

Loading…

Następne Przeloty (najbliższe 24 godziny)

TLE

ŚwieżeSource: Space-Track

Epoka: Sep 14, 2026, 02:55 UTC

1 29509U 06046E   26257.12164664  .00001540  00000-0  10907-3 0  9993
2 29509  97.6272 313.1109 0034073 293.2342  66.5299 15.05892850 81874

Śledź CZ-4 DEB w czasie rzeczywistym z AllMySat

Download on the App Store